Location: DaltonSkyGazer Observatory
(42.4858°N, 73.1565°W)
Time: 15:43:03
(UTC-04:00)

Helios 1B - Visible Passes

Search period start: 23 August 2017 00:00
Search period end: 02 September 2017 00:00
Orbit: 620 x 624 km, 98.2° (Epoch: 23 August)

Date Brightness Start Highest point End Pass type
(mag) Time Alt. Az. Time Alt. Az. Time Alt. Az.
23 Aug 7.2 00:53:16 17° NNE 00:53:16 17° NNE 00:54:28 10° N visible
24 Aug 7.2 01:11:28 17° N 01:11:28 17° N 01:12:34 10° N visible
25 Aug 7.3 01:29:39 16° NNW 01:29:39 16° NNW 01:30:32 10° NNW visible
26 Aug 7.6 00:10:38 10° NNE 00:10:38 10° NNE 00:10:42 10° NNE visible
26 Aug 7.4 01:47:51 13° NNW 01:47:51 13° NNW 01:48:23 10° NNW visible
27 Aug 7.5 00:28:50 12° NNE 00:28:50 12° NNE 00:29:22 10° NNE visible
27 Aug 7.5 02:06:03 10° NNW 02:06:03 10° NNW 02:06:05 10° NNW visible
28 Aug 7.5 00:47:02 14° NNE 00:47:02 14° NNE 00:47:42 10° N visible
29 Aug 7.5 01:05:13 14° N 01:05:13 14° N 01:05:51 10° N visible
30 Aug 7.6 01:23:25 13° N 01:23:25 13° N 01:23:52 10° N visible
31 Aug 7.6 01:41:37 11° NNW 01:41:37 11° NNW 01:41:46 10° NNW visible
